This demonstration page uses our WeatherBlox Daily Observations layout. Learn more.

Left ArrowRight Arrow

40.92501, -98.34201

Hourly Observations for May 15, 2020

Temp ( °F °C ) Dew Point ( °F °C ) Humidity (%) Winds ( mph kmh ) Pressure ( in mb ) Visibility ( mi km ) Precip ( " mm )
12:53 am 00:53 Clear 54 12.2 46 7.8 75 75 NE 5 7 29.91 1013 10 16 0.00 0.00
1:53 am 01:53 Clear 54 12.2 46 7.8 75 75 N 7 11 29.91 1013 10 16 0.00 0.00
2:53 am 02:53 Clear 52 11.1 45 7.2 77 77 N 6 9 29.89 1012 10 16 0.00 0.00
3:53 am 03:53 Clear 52 11.1 46 7.8 80 80 NE 6 9 29.89 1012 10 16 0.00 0.00
4:53 am 04:53 Clear 53 11.7 46 7.8 77 77 NNE 8 13 29.91 1013 10 16 0.00 0.00
5:53 am 05:53 Cloudy 54 12.2 46 7.8 75 75 Calm 29.98 1015 10 16 0.00 0.00
6:53 am 06:53 Mostly Cloudy 54 12.2 46 7.8 75 75 NE 6 9 29.98 1015 10 16 0.00 0.00
7:53 am 07:53 Sunny 57 13.9 44 6.7 62 62 ENE 10 17 29.98 1015 10 16 0.00 0.00
8:53 am 08:53 Mostly Cloudy 63 17.2 40 4.4 43 43 E 12 19 30.01 1016 10 16 0.00 0.00
9:53 am 09:53 Mostly Sunny 65 18.3 41 5 42 42 ESE 9 15 30.02 1017 10 16 0.00 0.00
10:53 am 10:53 Sunny 69 20.6 41 5 36 36 E 12 19 30.01 1016 10 16 0.00 0.00
11:53 am 11:53 Sunny 72 22.2 42 5.6 34 34 E 16 26 30.01 1016 10 16 0.00 0.00
12:53 pm 12:53 Sunny 76 24.4 45 7.2 33 33 E 17 28 30.01 1016 10 16 0.00 0.00
1:53 pm 13:53 Sunny 75 23.9 45 7.2 34 34 ENE 7 11 29.98 1015 10 16 0.00 0.00
2:53 pm 14:53 Mostly Sunny 76 24.4 46 7.8 35 35 SSE 10 17 29.96 1015 10 16 0.00 0.00
3:53 pm 15:53 Mostly Sunny 77 25 46 7.8 33 33 SE 8 13 29.94 1014 10 16 0.00 0.00
4:53 pm 16:53 Mostly Sunny 77 25 46 7.8 33 33 SSE 9 15 29.93 1014 10 16 0.00 0.00
5:53 pm 17:53 Mostly Sunny 77 25 46 7.8 33 33 ESE 9 15 29.91 1013 10 16 0.00 0.00
6:53 pm 18:53 Sunny 76 24.4 45 7.2 33 33 ESE 14 22 29.91 1013 10 16 0.00 0.00
7:53 pm 19:53 Sunny 73 22.8 47 8.3 40 40 ESE 14 22 29.90 1013 10 16 0.00 0.00
8:53 pm 20:53 Clear 70 21.1 46 7.8 42 42 ESE 12 19 29.91 1013 10 16 0.00 0.00
9:53 pm 21:53 Clear 66 18.9 46 7.8 49 49 ESE 10 17 29.95 1014 10 16 0.00 0.00
10:53 pm 22:53 Clear 66 18.9 45 7.2 47 47 ESE 12 19 29.96 1014 10 16 0.00 0.00
11:53 pm 23:53 Clear 64 17.8 44 6.7 48 48 SE 14 22 29.92 1013 10 16 0.00 0.00

Powered by AerisWeather